| time (UTC) | temp C | wind direction | speed KPH | gust KPH | rain 1hr cm | rain 24hr cm | rain mn cm | humidity % | barometer mb |
| 20260903122722 | 25 | 76 | 0.0 | 0.0 | 0.00 | 0.00 | 0.00 | 89 | 1016.4 |
| 20260903122223 | 25 | 85 | 0.0 | 0.0 | 0.00 | 0.00 | 0.00 | 89 | 1016.4 |
| 20260903122155 | 25 | 93 | 0.0 | 0.0 | 0.00 | 0.00 | 0.00 | 89 | 1016.4 |
| 20260903121723 | 25 | 103 | 0.0 | 0.0 | 0.00 | 0.00 | 0.00 | 90 | 1016.4 |
| 20260903121222 | 24 | 103 | 0.0 | 0.0 | 0.00 | 0.00 | 0.00 | 90 | 1016.4 |
| 20260903121157 | 24 | 103 | 0.0 | 0.0 | 0.00 | 0.00 | 0.00 | 90 | 1016.4 |
| 20260903120722 | 24 | 136 | 0.0 | 0.0 | 0.00 | 0.00 | 0.00 | 90 | 1016.4 |
| 20260903120223 | 24 | 114 | 0.0 | 0.0 | 0.00 | 0.00 | 0.00 | 90 | 1016.4 |
| 20260903120157 | 24 | 114 | 0.0 | 0.0 | 0.00 | 0.00 | 0.00 | 90 | 1016.4 |
| 20260903115722 | 24 | 42 | 0.0 | 0.0 | 0.00 | 0.00 | 0.00 | 90 | 1016.3 |
| 20260903115222 | 24 | 42 | 0.0 | 1.6 | 0.00 | 0.00 | 0.00 | 89 | 1016.3 |
| 20260903115155 | 24 | 42 | 0.0 | 0.0 | 0.00 | 0.00 | 0.00 | 89 | 1016.3 |
| 20260903114723 | 24 | 42 | 0.0 | 0.0 | 0.00 | 0.00 | 0.00 | 89 | 1016.3 |
| 20260903114224 | 24 | 42 | 0.0 | 0.0 | 0.00 | 0.00 | 0.00 | 89 | 1016.0 |
| 20260903114157 | 24 | 42 | 0.0 | 0.0 | 0.00 | 0.00 | 0.00 | 89 | 1016.0 |
| 20260903113723 | 25 | 42 | 0.0 | 0.0 | 0.00 | 0.00 | 0.00 | 89 | 1016.0 |
| 20260903113222 | 25 | 42 | 0.0 | 0.0 | 0.00 | 0.00 | 0.00 | 89 | 1016.0 |
| 20260903113157 | 25 | 42 | 0.0 | 0.0 | 0.00 | 0.00 | 0.00 | 89 | 1016.0 |
| 20260903112723 | 25 | 42 | 0.0 | 0.0 | 0.00 | 0.00 | 0.00 | 89 | 1015.8 |
| 20260903112223 | 25 | 42 | 0.0 | 1.6 | 0.00 | 0.00 | 0.00 | 88 | 1015.8 |
| 20260903112156 | 25 | 42 | 1.6 | 1.6 | 0.00 | 0.00 | 0.00 | 88 | 1015.8 |
| 20260903111723 | 25 | 92 | 0.0 | 0.0 | 0.00 | 0.00 | 0.00 | 88 | 1015.8 |
| 20260903111224 | 25 | 92 | 0.0 | 0.0 | 0.00 | 0.00 | 0.00 | 89 | 1015.7 |
| 20260903111156 | 25 | 92 | 0.0 | 0.0 | 0.00 | 0.00 | 0.00 | 89 | 1015.7 |
| 20260903110722 | 25 | 92 | 0.0 | 0.0 | 0.00 | 0.00 | 0.00 | 89 | 1015.7 |
| 20260903110223 | 25 | 92 | 0.0 | 0.0 | 0.00 | 0.00 | 0.00 | 89 | 1015.7 |
| 20260903110156 | 25 | 92 | 0.0 | 0.0 | 0.00 | 0.00 | 0.00 | 89 | 1015.7 |
| 20260903105724 | 25 | 92 | 0.0 | 0.0 | 0.00 | 0.00 | 0.00 | 89 | 1015.7 |
| 20260903105222 | 25 | 92 | 0.0 | 3.2 | 0.00 | 0.00 | 0.00 | 88 | 1015.7 |
| 20260903105157 | 25 | 92 | 0.0 | 1.6 | 0.00 | 0.00 | 0.00 | 88 | 1015.7 |
| 20260903104723 | 25 | 92 | 1.6 | 3.2 | 0.00 | 0.00 | 0.00 | 88 | 1015.7 |
| 20260903104224 | 25 | 102 | 1.6 | 3.2 | 0.00 | 0.00 | 0.00 | 88 | 1015.7 |
| 20260903104156 | 25 | 97 | 0.0 | 0.0 | 0.00 | 0.00 | 0.00 | 88 | 1015.7 |
| 20260903103722 | 25 | 93 | 3.2 | 3.2 | 0.00 | 0.00 | 0.00 | 88 | 1015.7 |
| 20260903103224 | 25 | 93 | 1.6 | 3.2 | 0.00 | 0.00 | 0.00 | 88 | 1015.7 |
| 20260903103156 | 25 | 110 | 1.6 | 3.2 | 0.00 | 0.00 | 0.00 | 88 | 1015.7 |
| 20260903102723 | 25 | 85 | 1.6 | 3.2 | 0.00 | 0.00 | 0.00 | 88 | 1015.5 |
| 20260903102222 | 25 | 96 | 1.6 | 3.2 | 0.00 | 0.00 | 0.00 | 88 | 1015.5 |
| 20260903102157 | 25 | 103 | 1.6 | 4.8 | 0.00 | 0.00 | 0.00 | 88 | 1015.5 |
| 20260903101723 | 25 | 113 | 3.2 | 4.8 | 0.00 | 0.00 | 0.00 | 88 | 1015.5 |
| 20260903101224 | 25 | 80 | 1.6 | 1.6 | 0.00 | 0.00 | 0.00 | 88 | 1015.6 |
| 20260903101156 | 25 | 88 | 0.0 | 3.2 | 0.00 | 0.00 | 0.00 | 88 | 1015.6 |
| 20260903100722 | 25 | 66 | 3.2 | 3.2 | 0.00 | 0.00 | 0.00 | 88 | 1015.6 |
| 20260903100223 | 25 | 110 | 0.0 | 0.0 | 0.00 | 0.00 | 0.00 | 86 | 1015.6 |
| 20260903100158 | 25 | 116 | 0.0 | 0.0 | 0.00 | 0.00 | 0.00 | 86 | 1015.6 |
| 20260903095724 | 25 | 127 | 1.6 | 3.2 | 0.00 | 0.00 | 0.00 | 86 | 1015.4 |
| 20260903095222 | 25 | 106 | 1.6 | 1.6 | 0.00 | 0.00 | 0.00 | 85 | 1015.4 |
| 20260903095156 | 25 | 117 | 1.6 | 1.6 | 0.00 | 0.00 | 0.00 | 85 | 1015.4 |
| 20260903094723 | 25 | 143 | 1.6 | 3.2 | 0.00 | 0.00 | 0.00 | 85 | 1015.4 |
| 20260903094223 | 25 | 136 | 0.0 | 0.0 | 0.00 | 0.00 | 0.00 | 85 | 1015.3 |
| 20260903094155 | 25 | 131 | 0.0 | 0.0 | 0.00 | 0.00 | 0.00 | 85 | 1015.3 |
| 20260903093722 | 25 | 131 | 0.0 | 1.6 | 0.00 | 0.00 | 0.00 | 85 | 1015.3 |
| 20260903093223 | 25 | 106 | 3.2 | 3.2 | 0.00 | 0.00 | 0.00 | 85 | 1015.3 |
| 20260903093155 | 25 | 120 | 0.0 | 3.2 | 0.00 | 0.00 | 0.00 | 85 | 1015.3 |
| 20260903092722 | 25 | 112 | 3.2 | 3.2 | 0.00 | 0.00 | 0.00 | 85 | 1015.3 |
| 20260903092223 | 25 | 104 | 0.0 | 0.0 | 0.00 | 0.00 | 0.00 | 85 | 1015.3 |
| 20260903092156 | 25 | 107 | 0.0 | 0.0 | 0.00 | 0.00 | 0.00 | 85 | 1015.3 |
| 20260903091724 | 25 | 112 | 0.0 | 0.0 | 0.00 | 0.00 | 0.00 | 85 | 1015.3 |
| 20260903091222 | 25 | 114 | 0.0 | 0.0 | 0.00 | 0.00 | 0.00 | 85 | 1015.3 |
| 20260903091155 | 25 | 80 | 0.0 | 0.0 | 0.00 | 0.00 | 0.00 | 85 | 1015.3 |
| 20260903090723 | 25 | 80 | 0.0 | 0.0 | 0.00 | 0.00 | 0.00 | 85 | 1015.3 |
| 20260903090224 | 25 | 80 | 0.0 | 0.0 | 0.00 | 0.00 | 0.00 | 86 | 1015.3 |
| 20260903090157 | 25 | 80 | 0.0 | 0.0 | 0.00 | 0.00 | 0.00 | 86 | 1015.3 |
| 20260903085723 | 25 | 80 | 0.0 | 0.0 | 0.00 | 0.00 | 0.00 | 86 | 1015.3 |
| 20260903085223 | 25 | 80 | 0.0 | 0.0 | 0.00 | 0.00 | 0.00 | 86 | 1015.3 |
| 20260903085157 | 25 | 80 | 0.0 | 0.0 | 0.00 | 0.00 | 0.00 | 86 | 1015.3 |
| 20260903084724 | 25 | 82 | 0.0 | 0.0 | 0.00 | 0.00 | 0.00 | 86 | 1015.3 |
| 20260903084222 | 25 | 80 | 0.0 | 0.0 | 0.00 | 0.00 | 0.00 | 86 | 1015.3 |
| 20260903084155 | 25 | 80 | 0.0 | 0.0 | 0.00 | 0.00 | 0.00 | 86 | 1015.3 |
| 20260903083723 | 25 | 80 | 0.0 | 0.0 | 0.00 | 0.00 | 0.00 | 87 | 1015.3 |
| 20260903083224 | 25 | 80 | 0.0 | 0.0 | 0.00 | 0.00 | 0.00 | 87 | 1015.3 |
| 20260903083200 | 25 | 80 | 0.0 | 0.0 | 0.00 | 0.00 | 0.00 | 87 | 1015.3 |
| 20260903082722 | 25 | 80 | 0.0 | 0.0 | 0.00 | 0.00 | 0.00 | 87 | 1015.2 |
| 20260903082223 | 25 | 80 | 0.0 | 0.0 | 0.00 | 0.00 | 0.00 | 86 | 1015.2 |
| 20260903082156 | 25 | 80 | 0.0 | 0.0 | 0.00 | 0.00 | 0.00 | 86 | 1015.2 |
| 20260903081723 | 25 | 80 | 0.0 | 0.0 | 0.00 | 0.00 | 0.00 | 86 | 1015.2 |
| 20260903081222 | 25 | 80 | 0.0 | 0.0 | 0.00 | 0.00 | 0.00 | 85 | 1015.0 |
| 20260903081156 | 25 | 80 | 0.0 | 0.0 | 0.00 | 0.00 | 0.00 | 85 | 1015.0 |
| 20260903080723 | 25 | 80 | 0.0 | 0.0 | 0.00 | 0.00 | 0.00 | 85 | 1015.0 |
| 20260903080223 | 26 | 80 | 0.0 | 0.0 | 0.00 | 0.00 | 0.00 | 85 | 1015.0 |
| 20260903080156 | 26 | 80 | 0.0 | 0.0 | 0.00 | 0.00 | 0.00 | 85 | 1015.0 |
| 20260903075722 | 26 | 80 | 0.0 | 0.0 | 0.00 | 0.00 | 0.00 | 84 | 1015.1 |
| 20260903075223 | 26 | 80 | 0.0 | 0.0 | 0.00 | 0.00 | 0.00 | 85 | 1015.1 |
| 20260903075155 | 26 | 80 | 0.0 | 0.0 | 0.00 | 0.00 | 0.00 | 85 | 1015.1 |
| 20260903074724 | 26 | 80 | 0.0 | 0.0 | 0.00 | 0.00 | 0.00 | 85 | 1015.1 |
| 20260903074222 | 26 | 80 | 0.0 | 0.0 | 0.00 | 0.00 | 0.00 | 86 | 1015.2 |
| 20260903074155 | 26 | 80 | 0.0 | 0.0 | 0.00 | 0.00 | 0.00 | 86 | 1015.2 |
| 20260903073723 | 26 | 80 | 0.0 | 0.0 | 0.00 | 0.00 | 0.00 | 86 | 1015.2 |
| 20260903073223 | 26 | 80 | 0.0 | 0.0 | 0.00 | 0.00 | 0.00 | 87 | 1015.2 |
| 20260903073156 | 26 | 80 | 0.0 | 0.0 | 0.00 | 0.00 | 0.00 | 88 | 1015.2 |
| 20260903072722 | 26 | 80 | 0.0 | 0.0 | 0.00 | 0.00 | 0.00 | 88 | 1015.3 |
| 20260903072223 | 26 | 82 | 0.0 | 0.0 | 0.00 | 0.00 | 0.00 | 87 | 1015.3 |
| 20260903072155 | 26 | 80 | 0.0 | 0.0 | 0.00 | 0.00 | 0.00 | 87 | 1015.3 |
| 20260903071723 | 26 | 80 | 0.0 | 0.0 | 0.00 | 0.00 | 0.00 | 87 | 1015.3 |
| 20260903071222 | 26 | 80 | 0.0 | 0.0 | 0.00 | 0.00 | 0.00 | 87 | 1015.3 |
| 20260903071157 | 26 | 80 | 0.0 | 0.0 | 0.00 | 0.00 | 0.00 | 87 | 1015.3 |
| 20260903070723 | 26 | 80 | 0.0 | 0.0 | 0.00 | 0.00 | 0.00 | 86 | 1015.3 |
| 20260903070223 | 26 | 80 | 0.0 | 0.0 | 0.00 | 0.00 | 0.00 | 86 | 1015.3 |
| 20260903070156 | 26 | 80 | 0.0 | 0.0 | 0.00 | 0.00 | 0.00 | 86 | 1015.3 |
| 20260903065722 | 26 | 80 | 0.0 | 0.0 | 0.00 | 0.00 | 0.00 | 86 | 1015.2 |
| 20260903065223 | 26 | 80 | 0.0 | 0.0 | 0.00 | 0.00 | 0.00 | 85 | 1015.2 |
| 20260903065156 | 26 | 80 | 0.0 | 0.0 | 0.00 | 0.00 | 0.00 | 85 | 1015.2 |
| 20260903064723 | 26 | 80 | 0.0 | 0.0 | 0.00 | 0.00 | 0.00 | 85 | 1015.2 |
| 20260903064222 | 26 | 80 | 0.0 | 0.0 | 0.00 | 0.00 | 0.00 | 83 | 1015.2 |
| 20260903064157 | 26 | 80 | 0.0 | 0.0 | 0.00 | 0.00 | 0.00 | 83 | 1015.2 |
| 20260903063724 | 26 | 80 | 0.0 | 0.0 | 0.00 | 0.00 | 0.00 | 82 | 1015.2 |
| 20260903063222 | 26 | 80 | 0.0 | 0.0 | 0.00 | 0.00 | 0.00 | 82 | 1015.2 |
| 20260903063155 | 26 | 80 | 0.0 | 0.0 | 0.00 | 0.00 | 0.00 | 82 | 1015.2 |
| 20260903062723 | 26 | 80 | 0.0 | 0.0 | 0.00 | 0.00 | 0.00 | 83 | 1015.2 |
| 20260903062224 | 26 | 80 | 0.0 | 0.0 | 0.00 | 0.00 | 0.00 | 84 | 1015.2 |
| 20260903062156 | 26 | 80 | 0.0 | 0.0 | 0.00 | 0.00 | 0.00 | 84 | 1015.2 |
| 20260903061722 | 27 | 80 | 0.0 | 0.0 | 0.00 | 0.00 | 0.00 | 84 | 1015.2 |
| 20260903061223 | 27 | 80 | 0.0 | 0.0 | 0.00 | 0.00 | 0.00 | 84 | 1015.2 |
| 20260903061156 | 27 | 80 | 0.0 | 0.0 | 0.00 | 0.00 | 0.00 | 85 | 1015.2 |
| 20260903060724 | 27 | 80 | 0.0 | 0.0 | 0.00 | 0.00 | 0.00 | 85 | 1015.2 |
| 20260903060222 | 27 | 80 | 0.0 | 0.0 | 0.00 | 0.00 | 0.00 | 84 | 1015.2 |
| 20260903060155 | 27 | 80 | 0.0 | 0.0 | 0.00 | 0.00 | 0.00 | 84 | 1015.2 |
| 20260903055723 | 27 | 80 | 0.0 | 0.0 | 0.00 | 0.00 | 0.00 | 84 | 1015.3 |
| 20260903055223 | 27 | 80 | 0.0 | 0.0 | 0.00 | 0.00 | 0.00 | 83 | 1015.3 |
| 20260903055156 | 27 | 80 | 0.0 | 0.0 | 0.00 | 0.00 | 0.00 | 83 | 1015.3 |
| 20260903054723 | 27 | 80 | 0.0 | 0.0 | 0.00 | 0.00 | 0.00 | 83 | 1015.3 |
| 20260903054223 | 27 | 80 | 0.0 | 0.0 | 0.00 | 0.00 | 0.00 | 82 | 1015.4 |
| 20260903054156 | 27 | 80 | 0.0 | 0.0 | 0.00 | 0.00 | 0.00 | 82 | 1015.4 |
| 20260903053723 | 27 | 80 | 0.0 | 0.0 | 0.00 | 0.00 | 0.00 | 81 | 1015.4 |
| 20260903053222 | 27 | 80 | 0.0 | 0.0 | 0.00 | 0.00 | 0.00 | 80 | 1015.4 |
| 20260903053157 | 27 | 80 | 0.0 | 0.0 | 0.00 | 0.00 | 0.00 | 80 | 1015.4 |
| 20260903052723 | 27 | 80 | 0.0 | 0.0 | 0.00 | 0.00 | 0.00 | 79 | 1015.4 |
| 20260903052223 | 27 | 80 | 0.0 | 0.0 | 0.00 | 0.00 | 0.00 | 78 | 1015.4 |
| 20260903052156 | 27 | 80 | 0.0 | 0.0 | 0.00 | 0.00 | 0.00 | 78 | 1015.4 |
| 20260903051722 | 27 | 80 | 0.0 | 0.0 | 0.00 | 0.00 | 0.00 | 76 | 1015.4 |
| 20260903051223 | 27 | 80 | 0.0 | 1.6 | 0.00 | 0.00 | 0.00 | 76 | 1015.4 |
| 20260903051156 | 27 | 82 | 1.6 | 1.6 | 0.00 | 0.00 | 0.00 | 76 | 1015.4 |
| 20260903050723 | 27 | 80 | 0.0 | 1.6 | 0.00 | 0.00 | 0.00 | 73 | 1015.4 |
| 20260903050222 | 27 | 80 | 0.0 | 1.6 | 0.00 | 0.00 | 0.00 | 73 | 1015.4 |
| 20260903050157 | 27 | 80 | 1.6 | 1.6 | 0.00 | 0.00 | 0.00 | 73 | 1015.4 |
| 20260903045723 | 27 | 72 | 0.0 | 1.6 | 0.00 | 0.00 | 0.00 | 73 | 1015.5 |
| 20260903045223 | 27 | 65 | 1.6 | 3.2 | 0.00 | 0.00 | 0.00 | 72 | 1015.5 |
| 20260903045156 | 27 | 58 | 1.6 | 3.2 | 0.00 | 0.00 | 0.00 | 72 | 1015.5 |
| 20260903044722 | 27 | 68 | 3.2 | 3.2 | 0.00 | 0.00 | 0.00 | 73 | 1015.5 |
| 20260903044223 | 27 | 64 | 1.6 | 1.6 | 0.00 | 0.00 | 0.00 | 73 | 1015.4 |
| 20260903044155 | 27 | 64 | 1.6 | 3.2 | 0.00 | 0.00 | 0.00 | 73 | 1015.4 |
| 20260903043723 | 27 | 68 | 1.6 | 3.2 | 0.00 | 0.00 | 0.00 | 73 | 1015.4 |
| 20260903043222 | 27 | 68 | 3.2 | 3.2 | 0.00 | 0.00 | 0.00 | 72 | 1015.4 |
| 20260903043157 | 27 | 68 | 1.6 | 3.2 | 0.00 | 0.00 | 0.00 | 72 | 1015.4 |
| 20260903042723 | 27 | 85 | 1.6 | 3.2 | 0.00 | 0.00 | 0.00 | 72 | 1015.4 |
| 20260903042223 | 27 | 104 | 3.2 | 3.2 | 0.00 | 0.00 | 0.00 | 72 | 1015.4 |
| 20260903042156 | 27 | 106 | 0.0 | 3.2 | 0.00 | 0.00 | 0.00 | 72 | 1015.4 |
| 20260903041723 | 27 | 106 | 1.6 | 3.2 | 0.00 | 0.00 | 0.00 | 71 | 1015.4 |
| 20260903041224 | 27 | 106 | 3.2 | 3.2 | 0.00 | 0.00 | 0.00 | 71 | 1015.4 |
| 20260903041157 | 27 | 106 | 3.2 | 3.2 | 0.00 | 0.00 | 0.00 | 70 | 1015.4 |
| 20260903040722 | 28 | 106 | 0.0 | 1.6 | 0.00 | 0.00 | 0.00 | 70 | 1015.4 |
| 20260903040223 | 28 | 106 | 0.0 | 0.0 | 0.00 | 0.00 | 0.00 | 70 | 1015.4 |
| 20260903040156 | 28 | 106 | 0.0 | 1.6 | 0.00 | 0.00 | 0.00 | 70 | 1015.4 |
| 20260903035724 | 28 | 106 | 0.0 | 1.6 | 0.00 | 0.00 | 0.00 | 69 | 1015.4 |
| 20260903035222 | 28 | 106 | 1.6 | 1.6 | 0.00 | 0.00 | 0.00 | 69 | 1015.4 |
| 20260903035157 | 28 | 106 | 0.0 | 0.0 | 0.00 | 0.00 | 0.00 | 69 | 1015.4 |
| 20260903034723 | 28 | 106 | 0.0 | 0.0 | 0.00 | 0.00 | 0.00 | 68 | 1015.4 |
| 20260903034224 | 28 | 106 | 0.0 | 0.0 | 0.00 | 0.00 | 0.00 | 68 | 1015.5 |
| 20260903034157 | 28 | 106 | 0.0 | 0.0 | 0.00 | 0.00 | 0.00 | 68 | 1015.5 |
| 20260903033722 | 28 | 106 | 0.0 | 0.0 | 0.00 | 0.00 | 0.00 | 67 | 1015.5 |
| 20260903033223 | 28 | 106 | 0.0 | 0.0 | 0.00 | 0.00 | 0.00 | 67 | 1015.5 |
| 20260903033156 | 28 | 106 | 0.0 | 0.0 | 0.00 | 0.00 | 0.00 | 67 | 1015.5 |
| 20260903032724 | 28 | 106 | 0.0 | 0.0 | 0.00 | 0.00 | 0.00 | 67 | 1015.6 |
| 20260903032222 | 28 | 106 | 0.0 | 1.6 | 0.00 | 0.00 | 0.00 | 67 | 1015.6 |
| 20260903032157 | 28 | 106 | 0.0 | 3.2 | 0.00 | 0.00 | 0.00 | 67 | 1015.6 |
| 20260903031723 | 28 | 106 | 1.6 | 1.6 | 0.00 | 0.00 | 0.00 | 66 | 1015.6 |
| 20260903031224 | 28 | 106 | 1.6 | 3.2 | 0.00 | 0.00 | 0.00 | 66 | 1015.6 |
| 20260903031156 | 28 | 106 | 1.6 | 1.6 | 0.00 | 0.00 | 0.00 | 66 | 1015.6 |
| 20260903030722 | 28 | 100 | 1.6 | 3.2 | 0.00 | 0.00 | 0.00 | 65 | 1015.6 |
| 20260903030223 | 28 | 73 | 1.6 | 3.2 | 0.00 | 0.00 | 0.00 | 65 | 1015.6 |
| 20260903030156 | 28 | 73 | 1.6 | 3.2 | 0.00 | 0.00 | 0.00 | 65 | 1015.6 |
| 20260903025724 | 28 | 68 | 3.2 | 3.2 | 0.00 | 0.00 | 0.00 | 65 | 1015.6 |
| 20260903025222 | 28 | 65 | 1.6 | 1.6 | 0.00 | 0.00 | 0.00 | 65 | 1015.6 |
| 20260903025157 | 28 | 65 | 0.0 | 3.2 | 0.00 | 0.00 | 0.00 | 65 | 1015.6 |
| 20260903024723 | 28 | 65 | 1.6 | 1.6 | 0.00 | 0.00 | 0.00 | 64 | 1015.6 |
| 20260903024224 | 28 | 65 | 1.6 | 3.2 | 0.00 | 0.00 | 0.00 | 64 | 1015.6 |
| 20260903024156 | 28 | 71 | 1.6 | 3.2 | 0.00 | 0.00 | 0.00 | 64 | 1015.6 |
| 20260903023722 | 28 | 54 | 0.0 | 3.2 | 0.00 | 0.00 | 0.00 | 64 | 1015.6 |
| 20260903023223 | 28 | 55 | 1.6 | 3.2 | 0.00 | 0.00 | 0.00 | 64 | 1015.6 |
| 20260903023156 | 28 | 32 | 0.0 | 1.6 | 0.00 | 0.00 | 0.00 | 64 | 1015.6 |
| 20260903022723 | 28 | 23 | 1.6 | 3.2 | 0.00 | 0.00 | 0.00 | 63 | 1015.6 |
| 20260903022224 | 28 | 68 | 0.0 | 1.6 | 0.00 | 0.00 | 0.00 | 63 | 1015.6 |
| 20260903022157 | 28 | 34 | 0.0 | 3.2 | 0.00 | 0.00 | 0.00 | 63 | 1015.6 |
| 20260903021723 | 28 | 11 | 0.0 | 3.2 | 0.00 | 0.00 | 0.00 | 63 | 1015.6 |
| 20260903021223 | 28 | 47 | 3.2 | 4.8 | 0.00 | 0.00 | 0.00 | 62 | 1015.6 |
| 20260903021156 | 28 | 55 | 1.6 | 3.2 | 0.00 | 0.00 | 0.00 | 62 | 1015.6 |
| 20260903020723 | 28 | 65 | 0.0 | 4.8 | 0.00 | 0.00 | 0.00 | 63 | 1015.6 |
| 20260903020224 | 28 | 64 | 0.0 | 0.0 | 0.00 | 0.00 | 0.00 | 65 | 1015.6 |
| 20260903020156 | 28 | 64 | 0.0 | 1.6 | 0.00 | 0.00 | 0.00 | 65 | 1015.6 |
| 20260903015722 | 28 | 56 | 0.0 | 1.6 | 0.00 | 0.00 | 0.00 | 65 | 1015.5 |
| 20260903015224 | 28 | 27 | 0.0 | 1.6 | 0.00 | 0.00 | 0.00 | 66 | 1015.5 |
| 20260903015157 | 28 | 27 | 1.6 | 1.6 | 0.00 | 0.00 | 0.00 | 66 | 1015.5 |
| 20260903014723 | 28 | 24 | 0.0 | 1.6 | 0.00 | 0.00 | 0.00 | 67 | 1015.5 |
| 20260903014223 | 28 | 56 | 0.0 | 3.2 | 0.00 | 0.00 | 0.00 | 67 | 1015.2 |
| 20260903014156 | 28 | 56 | 1.6 | 3.2 | 0.00 | 0.00 | 0.00 | 67 | 1015.2 |
| 20260903013724 | 28 | 75 | 1.6 | 3.2 | 0.00 | 0.00 | 0.00 | 68 | 1015.2 |
| 20260903013222 | 28 | 51 | 1.6 | 1.6 | 0.00 | 0.00 | 0.00 | 68 | 1015.2 |
| 20260903013155 | 28 | 79 | 0.0 | 1.6 | 0.00 | 0.00 | 0.00 | 68 | 1015.2 |
| 20260903012723 | 28 | 45 | 0.0 | 0.0 | 0.00 | 0.00 | 0.00 | 69 | 1015.1 |
| 20260903012223 | 28 | 59 | 0.0 | 0.0 | 0.00 | 0.00 | 0.00 | 69 | 1015.1 |
| 20260903012156 | 28 | 59 | 0.0 | 1.6 | 0.00 | 0.00 | 0.00 | 70 | 1015.1 |
| 20260903011722 | 28 | 59 | 1.6 | 1.6 | 0.00 | 0.00 | 0.00 | 70 | 1015.1 |
| 20260903011223 | 28 | 89 | 3.2 | 3.2 | 0.00 | 0.00 | 0.00 | 71 | 1015.2 |
| 20260903011156 | 28 | 68 | 1.6 | 3.2 | 0.00 | 0.00 | 0.00 | 71 | 1015.2 |
| 20260903010723 | 28 | 28 | 1.6 | 1.6 | 0.00 | 0.00 | 0.00 | 72 | 1015.2 |
| 20260903010222 | 28 | 8 | 1.6 | 1.6 | 0.00 | 0.00 | 0.00 | 72 | 1015.2 |
| 20260903010157 | 29 | 8 | 3.2 | 3.2 | 0.00 | 0.00 | 0.00 | 72 | 1015.2 |
| 20260903005723 | 29 | 17 | 1.6 | 3.2 | 0.00 | 0.00 | 0.00 | 72 | 1015.2 |
| 20260903005223 | 29 | 18 | 1.6 | 3.2 | 0.00 | 0.00 | 0.00 | 72 | 1015.2 |
| 20260903005156 | 29 | 18 | 3.2 | 3.2 | 0.00 | 0.00 | 0.00 | 72 | 1015.2 |
| 20260903004725 | 29 | 35 | 1.6 | 3.2 | 0.00 | 0.00 | 0.00 | 72 | 1015.2 |
| 20260903004223 | 29 | 47 | 3.2 | 3.2 | 0.00 | 0.00 | 0.00 | 72 | 1015.2 |
| 20260903004155 | 29 | 34 | 1.6 | 3.2 | 0.00 | 0.00 | 0.00 | 72 | 1015.2 |
| 20260903003722 | 29 | 38 | 0.0 | 0.0 | 0.00 | 0.00 | 0.00 | 72 | 1015.2 |
| 20260903003245 | 29 | 68 | 0.0 | 3.2 | 0.00 | 0.00 | 0.00 | 71 | 1015.2 |
| 20260903003223 | 29 | 68 | 0.0 | 0.0 | 0.00 | 0.00 | 0.00 | 71 | 1015.2 |
| 20260903003156 | 29 | 68 | 0.0 | 3.2 | 0.00 | 0.00 | 0.00 | 71 | 1015.2 |
| 20260903002723 | 29 | 78 | 0.0 | 4.8 | 0.00 | 0.00 | 0.00 | 71 | 1015.2 |
| 20260903002224 | 30 | 11 | 0.0 | 0.0 | 0.00 | 0.00 | 0.00 | 71 | 1015.2 |
| 20260903002155 | 30 | 10 | 0.0 | 0.0 | 0.00 | 0.00 | 0.00 | 71 | 1015.2 |
| 20260903001722 | 30 | 13 | 0.0 | 0.0 | 0.00 | 0.00 | 0.00 | 71 | 1015.2 |
| 20260903001223 | 30 | 10 | 1.6 | 1.6 | 0.00 | 0.00 | 0.00 | 70 | 1015.2 |
| 20260903001157 | 30 | 10 | 0.0 | 1.6 | 0.00 | 0.00 | 0.00 | 70 | 1015.2 |
| 20260903000723 | 30 | 4 | 1.6 | 3.2 | 0.00 | 0.00 | 0.00 | 70 | 1015.2 |
| 20260903000222 | 30 | 6 | 0.0 | 3.2 | 0.00 | 0.00 | 0.00 | 70 | 1015.2 |
| 20260903000156 | 30 | 6 | 3.2 | 3.2 | 0.00 | 0.00 | 0.00 | 70 | 1015.2 |
| 20260902235723 | 30 | 0 | 0.0 | 0.0 | 0.00 | 0.00 | 0.00 | 70 | 1015.0 |
| 20260902235223 | 30 | 354 | 3.2 | 3.2 | 0.00 | 0.00 | 0.00 | 70 | 1015.0 |
| 20260902235156 | 30 | 6 | 1.6 | 4.8 | 0.00 | 0.00 | 0.00 | 70 | 1015.0 |
| 20260902234722 | 30 | 13 | 1.6 | 4.8 | 0.00 | 0.00 | 0.00 | 70 | 1015.0 |
| 20260902234223 | 30 | 42 | 1.6 | 1.6 | 0.00 | 0.00 | 0.00 | 69 | 1014.9 |
| 20260902234157 | 31 | 42 | 0.0 | 4.8 | 0.00 | 0.00 | 0.00 | 69 | 1014.9 |
| 20260902233723 | 31 | 55 | 1.6 | 3.2 | 0.00 | 0.00 | 0.00 | 69 | 1014.9 |
| 20260902233224 | 31 | 61 | 0.0 | 1.6 | 0.00 | 0.00 | 0.00 | 69 | 1014.9 |
| 20260902233157 | 31 | 49 | 0.0 | 3.2 | 0.00 | 0.00 | 0.00 | 69 | 1014.9 |
| 20260902232722 | 31 | 76 | 0.0 | 0.0 | 0.00 | 0.00 | 0.00 | 68 | 1015.1 |
| 20260902232223 | 31 | 65 | 3.2 | 3.2 | 0.00 | 0.00 | 0.00 | 68 | 1015.1 |
| 20260902232156 | 31 | 83 | 1.6 | 1.6 | 0.00 | 0.00 | 0.00 | 67 | 1015.1 |
| 20260902231724 | 31 | 90 | 3.2 | 3.2 | 0.00 | 0.00 | 0.00 | 67 | 1015.1 |
| 20260902231222 | 31 | 75 | 1.6 | 3.2 | 0.00 | 0.00 | 0.00 | 67 | 1015.0 |
| 20260902231155 | 31 | 76 | 3.2 | 3.2 | 0.00 | 0.00 | 0.00 | 67 | 1015.0 |
| 20260902230723 | 31 | 64 | 1.6 | 3.2 | 0.00 | 0.00 | 0.00 | 67 | 1015.0 |
| 20260902230224 | 31 | 64 | 0.0 | 1.6 | 0.00 | 0.00 | 0.00 | 67 | 1015.0 |
| 20260902230156 | 32 | 64 | 1.6 | 1.6 | 0.00 | 0.00 | 0.00 | 67 | 1015.0 |
| 20260902225722 | 32 | 64 | 0.0 | 0.0 | 0.00 | 0.00 | 0.00 | 66 | 1015.2 |
| 20260902225223 | 32 | 82 | 1.6 | 1.6 | 0.00 | 0.00 | 0.00 | 65 | 1015.2 |
| 20260902225156 | 32 | 92 | 1.6 | 1.6 | 0.00 | 0.00 | 0.00 | 63 | 1015.2 |
| 20260902224724 | 32 | 127 | 0.0 | 3.2 | 0.00 | 0.00 | 0.00 | 64 | 1015.2 |
| 20260902224222 | 32 | 83 | 1.6 | 1.6 | 0.00 | 0.00 | 0.00 | 64 | 1015.1 |
| 20260902224155 | 32 | 83 | 1.6 | 3.2 | 0.00 | 0.00 | 0.00 | 64 | 1015.1 |
| 20260902223723 | 32 | 107 | 1.6 | 1.6 | 0.00 | 0.00 | 0.00 | 64 | 1015.1 |
| 20260902223223 | 32 | 126 | 1.6 | 1.6 | 0.00 | 0.00 | 0.00 | 63 | 1015.1 |
| 20260902223156 | 32 | 117 | 1.6 | 3.2 | 0.00 | 0.00 | 0.00 | 63 | 1015.1 |
| 20260902222723 | 32 | 110 | 1.6 | 3.2 | 0.00 | 0.00 | 0.00 | 63 | 1015.2 |
| 20260902222223 | 32 | 120 | 1.6 | 3.2 | 0.00 | 0.00 | 0.00 | 61 | 1015.2 |
| 20260902222156 | 32 | 95 | 1.6 | 4.8 | 0.00 | 0.00 | 0.00 | 62 | 1015.2 |
| 20260902221722 | 32 | 82 | 0.0 | 4.8 | 0.00 | 0.00 | 0.00 | 62 | 1015.2 |
| 20260902221223 | 32 | 102 | 4.8 | 6.4 | 0.00 | 0.00 | 0.00 | 62 | 1015.2 |
| 20260902221156 | 32 | 109 | 6.4 | 8.0 | 0.00 | 0.00 | 0.00 | 62 | 1015.2 |
| 20260902220723 | 32 | 93 | 4.8 | 4.8 | 0.00 | 0.00 | 0.00 | 62 | 1015.2 |
| 20260902220222 | 32 | 107 | 3.2 | 4.8 | 0.00 | 0.00 | 0.00 | 61 | 1015.2 |
| 20260902220157 | 32 | 107 | 3.2 | 4.8 | 0.00 | 0.00 | 0.00 | 61 | 1015.2 |
| 20260902215723 | 32 | 44 | 3.2 | 8.0 | 0.00 | 0.00 | 0.00 | 61 | 1015.2 |
| 20260902215223 | 32 | 89 | 4.8 | 4.8 | 0.00 | 0.00 | 0.00 | 61 | 1015.2 |
| 20260902215156 | 32 | 41 | 0.0 | 6.4 | 0.00 | 0.00 | 0.00 | 61 | 1015.2 |
| 20260902214722 | 32 | 51 | 4.8 | 4.8 | 0.00 | 0.00 | 0.00 | 59 | 1015.2 |
| 20260902214222 | 32 | 75 | 8.0 | 8.0 | 0.00 | 0.00 | 0.00 | 60 | 1015.2 |
| 20260902214157 | 33 | 55 | 0.0 | 4.8 | 0.00 | 0.00 | 0.00 | 60 | 1015.2 |
| 20260902213722 | 33 | 69 | 1.6 | 6.4 | 0.00 | 0.00 | 0.00 | 58 | 1015.2 |
| 20260902213223 | 33 | 107 | 4.8 | 6.4 | 0.00 | 0.00 | 0.00 | 58 | 1015.2 |
| 20260902213156 | 33 | 119 | 1.6 | 3.2 | 0.00 | 0.00 | 0.00 | 58 | 1015.2 |
| 20260902212724 | 33 | 85 | 1.6 | 4.8 | 0.00 | 0.00 | 0.00 | 57 | 1015.3 |
| 20260902212222 | 33 | 40 | 4.8 | 8.0 | 0.00 | 0.00 | 0.00 | 58 | 1015.3 |
| 20260902212158 | 33 | 49 | 3.2 | 6.4 | 0.00 | 0.00 | 0.00 | 58 | 1015.3 |
| 20260902211723 | 33 | 164 | 3.2 | 6.4 | 0.00 | 0.00 | 0.00 | 60 | 1015.3 |
| 20260902211223 | 33 | 157 | 1.6 | 4.8 | 0.00 | 0.00 | 0.00 | 57 | 1015.4 |
| 20260902211155 | 33 | 185 | 4.8 | 4.8 | 0.00 | 0.00 | 0.00 | 57 | 1015.4 |
| 20260902210722 | 33 | 40 | 3.2 | 8.0 | 0.00 | 0.00 | 0.00 | 56 | 1015.4 |
| 20260902210223 | 33 | 83 | 1.6 | 3.2 | 0.00 | 0.00 | 0.00 | 60 | 1015.4 |
| 20260902210155 | 33 | 90 | 0.0 | 1.6 | 0.00 | 0.00 | 0.00 | 60 | 1015.4 |
| 20260902205723 | 33 | 75 | 1.6 | 3.2 | 0.00 | 0.00 | 0.00 | 58 | 1015.2 |
| 20260902205222 | 33 | 30 | 4.8 | 4.8 | 0.00 | 0.00 | 0.00 | 58 | 1015.2 |
| 20260902205157 | 33 | 8 | 3.2 | 4.8 | 0.00 | 0.00 | 0.00 | 58 | 1015.2 |
| 20260902204723 | 33 | 169 | 1.6 | 3.2 | 0.00 | 0.00 | 0.00 | 57 | 1015.2 |
| 20260902204223 | 34 | 52 | 1.6 | 1.6 | 0.00 | 0.00 | 0.00 | 56 | 1015.6 |
| 20260902204156 | 34 | 52 | 1.6 | 3.2 | 0.00 | 0.00 | 0.00 | 56 | 1015.6 |
| 20260902203724 | 34 | 71 | 1.6 | 1.6 | 0.00 | 0.00 | 0.00 | 54 | 1015.6 |
| 20260902203223 | 33 | 58 | 3.2 | 4.8 | 0.00 | 0.00 | 0.00 | 52 | 1015.6 |
| 20260902203155 | 33 | 103 | 4.8 | 4.8 | 0.00 | 0.00 | 0.00 | 52 | 1015.6 |
| 20260902202723 | 33 | 144 | 1.6 | 6.4 | 0.00 | 0.00 | 0.00 | 54 | 1015.6 |
| 20260902202224 | 33 | 45 | 4.8 | 4.8 | 0.00 | 0.00 | 0.00 | 59 | 1015.6 |
| 20260902202157 | 34 | 171 | 0.0 | 8.0 | 0.00 | 0.00 | 0.00 | 56 | 1015.6 |
| 20260902201722 | 34 | 157 | 0.0 | 1.6 | 0.00 | 0.00 | 0.00 | 55 | 1015.6 |
| 20260902201223 | 34 | 151 | 1.6 | 4.8 | 0.00 | 0.00 | 0.00 | 58 | 1015.9 |
| 20260902201156 | 34 | 127 | 4.8 | 8.0 | 0.00 | 0.00 | 0.00 | 58 | 1015.9 |
| 20260902200724 | 34 | 120 | 4.8 | 4.8 | 0.00 | 0.00 | 0.00 | 56 | 1015.9 |
| 20260902200240 | 34 | 82 | 4.8 | 4.8 | 0.00 | 0.00 | 0.00 | 54 | 1015.9 |
| 20260902200222 | 34 | 141 | 3.2 | 4.8 | 0.00 | 0.00 | 0.00 | 55 | 1015.9 |
| 20260902200157 | 34 | 82 | 4.8 | 4.8 | 0.00 | 0.00 | 0.00 | 54 | 1015.9 |
| 20260902195723 | 34 | 133 | 4.8 | 4.8 | 0.00 | 0.00 | 0.00 | 54 | 1016.1 |
| 20260902195224 | 34 | 126 | 3.2 | 4.8 | 0.00 | 0.00 | 0.00 | 52 | 1016.1 |
| 20260902195157 | 34 | 48 | 1.6 | 1.6 | 0.00 | 0.00 | 0.00 | 52 | 1016.1 |
| 20260902194722 | 34 | 104 | 4.8 | 6.4 | 0.00 | 0.00 | 0.00 | 52 | 1016.1 |
| 20260902194223 | 34 | 161 | 3.2 | 4.8 | 0.00 | 0.00 | 0.00 | 53 | 1016.5 |
| 20260902194156 | 34 | 42 | 4.8 | 8.0 | 0.00 | 0.00 | 0.00 | 53 | 1016.5 |
| 20260902193724 | 34 | 52 | 1.6 | 4.8 | 0.00 | 0.00 | 0.00 | 53 | 1016.5 |
| 20260902193223 | 33 | 45 | 1.6 | 8.0 | 0.00 | 0.00 | 0.00 | 53 | 1016.5 |
| 20260902193156 | 33 | 59 | 4.8 | 4.8 | 0.00 | 0.00 | 0.00 | 53 | 1016.5 |
| 20260902192722 | 33 | 104 | 3.2 | 3.2 | 0.00 | 0.00 | 0.00 | 59 | 1016.7 |
| 20260902192223 | 33 | 73 | 3.2 | 8.0 | 0.00 | 0.00 | 0.00 | 56 | 1016.7 |
| 20260902192155 | 33 | 109 | 4.8 | 8.0 | 0.00 | 0.00 | 0.00 | 56 | 1016.7 |
| 20260902191723 | 33 | 99 | 4.8 | 4.8 | 0.00 | 0.00 | 0.00 | 56 | 1016.7 |
| 20260902191222 | 33 | 0 | 0.0 | 4.8 | 0.00 | 0.00 | 0.00 | 58 | 1016.7 |
| 20260902191157 | 33 | 59 | 4.8 | 4.8 | 0.00 | 0.00 | 0.00 | 58 | 1016.7 |
| 20260902190722 | 33 | 148 | 1.6 | 1.6 | 0.00 | 0.00 | 0.00 | 59 | 1016.7 |
| 20260902190223 | 33 | 61 | 0.0 | 3.2 | 0.00 | 0.00 | 0.00 | 60 | 1016.7 |
| 20260902190156 | 33 | 41 | 3.2 | 3.2 | 0.00 | 0.00 | 0.00 | 58 | 1016.7 |
| 20260902185723 | 33 | 178 | 0.0 | 1.6 | 0.00 | 0.00 | 0.00 | 61 | 1017.0 |
| 20260902185223 | 33 | 78 | 3.2 | 3.2 | 0.00 | 0.00 | 0.00 | 58 | 1017.0 |
| 20260902185158 | 33 | 13 | 0.0 | 3.2 | 0.00 | 0.00 | 0.00 | 59 | 1017.0 |
| 20260902184722 | 33 | 30 | 0.0 | 1.6 | 0.00 | 0.00 | 0.00 | 62 | 1017.0 |
| 20260902184223 | 33 | 80 | 1.6 | 4.8 | 0.00 | 0.00 | 0.00 | 59 | 1017.1 |
| 20260902184156 | 33 | 189 | 4.8 | 4.8 | 0.00 | 0.00 | 0.00 | 59 | 1017.1 |
| 20260902183723 | 33 | 234 | 0.0 | 3.2 | 0.00 | 0.00 | 0.00 | 58 | 1017.1 |
| 20260902183222 | 33 | 216 | 0.0 | 6.4 | 0.00 | 0.00 | 0.00 | 57 | 1017.1 |
| 20260902183157 | 33 | 124 | 0.0 | 1.6 | 0.00 | 0.00 | 0.00 | 57 | 1017.1 |
| 20260902182723 | 33 | 93 | 6.4 | 9.7 | 0.00 | 0.00 | 0.00 | 58 | 1017.2 |
| 20260902182223 | 33 | 82 | 4.8 | 8.0 | 0.00 | 0.00 | 0.00 | 57 | 1017.2 |
| 20260902182156 | 33 | 90 | 6.4 | 8.0 | 0.00 | 0.00 | 0.00 | 57 | 1017.2 |
| 20260902181722 | 33 | 75 | 3.2 | 6.4 | 0.00 | 0.00 | 0.00 | 58 | 1017.2 |
| 20260902181223 | 33 | 65 | 4.8 | 4.8 | 0.00 | 0.00 | 0.00 | 56 | 1017.3 |
| 20260902181156 | 33 | 78 | 1.6 | 3.2 | 0.00 | 0.00 | 0.00 | 56 | 1017.3 |
| 20260902180723 | 33 | 99 | 1.6 | 3.2 | 0.00 | 0.00 | 0.00 | 55 | 1017.3 |
| 20260902180222 | 33 | 158 | 3.2 | 6.4 | 0.00 | 0.00 | 0.00 | 55 | 1017.3 |
| 20260902180157 | 33 | 66 | 3.2 | 8.0 | 0.00 | 0.00 | 0.00 | 55 | 1017.3 |
| 20260902175723 | 33 | 51 | 3.2 | 4.8 | 0.00 | 0.00 | 0.00 | 57 | 1017.6 |
| 20260902175223 | 33 | 4 | 4.8 | 6.4 | 0.00 | 0.00 | 0.00 | 58 | 1017.6 |
| 20260902175159 | 33 | 10 | 4.8 | 4.8 | 0.00 | 0.00 | 0.00 | 58 | 1017.6 |
| 20260902174722 | 33 | 13 | 3.2 | 6.4 | 0.00 | 0.00 | 0.00 | 57 | 1017.6 |
| 20260902174223 | 33 | 147 | 3.2 | 6.4 | 0.00 | 0.00 | 0.00 | 55 | 1017.8 |
| 20260902174158 | 33 | 110 | 4.8 | 8.0 | 0.00 | 0.00 | 0.00 | 57 | 1017.8 |
| 20260902173723 | 33 | 75 | 8.0 | 8.0 | 0.00 | 0.00 | 0.00 | 56 | 1017.8 |
| 20260902173222 | 33 | 151 | 1.6 | 3.2 | 0.00 | 0.00 | 0.00 | 56 | 1017.8 |
| 20260902173157 | 33 | 88 | 3.2 | 3.2 | 0.00 | 0.00 | 0.00 | 54 | 1017.8 |
| 20260902172723 | 33 | 88 | 4.8 | 4.8 | 0.00 | 0.00 | 0.00 | 58 | 1018.1 |
| 20260902172223 | 33 | 37 | 1.6 | 1.6 | 0.00 | 0.00 | 0.00 | 59 | 1018.1 |
| 20260902172156 | 33 | 14 | 1.6 | 1.6 | 0.00 | 0.00 | 0.00 | 57 | 1018.1 |
| 20260902171724 | 32 | 80 | 1.6 | 3.2 | 0.00 | 0.00 | 0.00 | 59 | 1018.1 |
| 20260902171223 | 32 | 0 | 3.2 | 3.2 | 0.00 | 0.00 | 0.00 | 62 | 1018.2 |
| 20260902171155 | 32 | 354 | 1.6 | 4.8 | 0.00 | 0.00 | 0.00 | 60 | 1018.2 |
| 20260902170722 | 33 | 30 | 1.6 | 1.6 | 0.00 | 0.00 | 0.00 | 59 | 1018.2 |
| 20260902170223 | 33 | 350 | 4.8 | 14.5 | 0.00 | 0.00 | 0.00 | 61 | 1018.2 |
| 20260902170156 | 33 | 16 | 4.8 | 6.4 | 0.00 | 0.00 | 0.00 | 61 | 1018.2 |
| 20260902165724 | 33 | 27 | 8.0 | 8.0 | 0.00 | 0.00 | 0.00 | 61 | 1018.3 |
| 20260902165222 | 33 | 11 | 4.8 | 4.8 | 0.00 | 0.00 | 0.00 | 63 | 1018.3 |
| 20260902165157 | 33 | 11 | 4.8 | 6.4 | 0.00 | 0.00 | 0.00 | 63 | 1018.3 |
| 20260902164723 | 33 | 52 | 1.6 | 3.2 | 0.00 | 0.00 | 0.00 | 63 | 1018.3 |
| 20260902164236 | 33 | 329 | 1.6 | 3.2 | 0.00 | 0.00 | 0.00 | 62 | 1018.3 |
| 20260902164223 | 33 | 6 | 1.6 | 3.2 | 0.00 | 0.00 | 0.00 | 60 | 1018.3 |
| 20260902164156 | 33 | 329 | 1.6 | 3.2 | 0.00 | 0.00 | 0.00 | 62 | 1018.3 |
| 20260902163724 | 33 | 230 | 0.0 | 3.2 | 0.00 | 0.00 | 0.00 | 64 | 1018.3 |
| 20260902163224 | 32 | 284 | 1.6 | 4.8 | 0.00 | 0.00 | 0.00 | 61 | 1018.3 |
| 20260902163156 | 33 | 275 | 4.8 | 4.8 | 0.00 | 0.00 | 0.00 | 64 | 1018.3 |
| 20260902162722 | 33 | 316 | 1.6 | 4.8 | 0.00 | 0.00 | 0.00 | 63 | 1018.6 |
| 20260902162223 | 33 | 116 | 0.0 | 0.0 | 0.00 | 0.00 | 0.00 | 59 | 1018.6 |
| 20260902162155 | 33 | 116 | 0.0 | 1.6 | 0.00 | 0.00 | 0.00 | 59 | 1018.6 |
| 20260902161724 | 33 | 31 | 0.0 | 1.6 | 0.00 | 0.00 | 0.00 | 57 | 1018.6 |
| 20260902161223 | 33 | 340 | 3.2 | 3.2 | 0.00 | 0.00 | 0.00 | 58 | 1018.7 |
| 20260902161156 | 33 | 343 | 1.6 | 3.2 | 0.00 | 0.00 | 0.00 | 60 | 1018.7 |
| 20260902160724 | 32 | 0 | 1.6 | 1.6 | 0.00 | 0.00 | 0.00 | 60 | 1018.7 |
| 20260902160222 | 32 | 186 | 0.0 | 3.2 | 0.00 | 0.00 | 0.00 | 61 | 1018.7 |
| 20260902160155 | 32 | 199 | 3.2 | 3.2 | 0.00 | 0.00 | 0.00 | 62 | 1018.7 |
| 20260902155723 | 32 | 330 | 1.6 | 1.6 | 0.00 | 0.00 | 0.00 | 62 | 1018.7 |
| 20260902155224 | 32 | 354 | 0.0 | 0.0 | 0.00 | 0.00 | 0.00 | 64 | 1018.7 |
| 20260902155156 | 32 | 354 | 0.0 | 1.6 | 0.00 | 0.00 | 0.00 | 64 | 1018.7 |
| 20260902154722 | 32 | 246 | 0.0 | 1.6 | 0.00 | 0.00 | 0.00 | 64 | 1018.7 |
| 20260902154222 | 32 | 301 | 4.8 | 4.8 | 0.00 | 0.00 | 0.00 | 65 | 1018.7 |
| 20260902154157 | 32 | 304 | 1.6 | 3.2 | 0.00 | 0.00 | 0.00 | 64 | 1018.7 |
| 20260902153723 | 32 | 313 | 3.2 | 3.2 | 0.00 | 0.00 | 0.00 | 65 | 1018.7 |
| 20260902153223 | 32 | 0 | 3.2 | 3.2 | 0.00 | 0.00 | 0.00 | 63 | 1018.7 |
| 20260902153156 | 32 | 55 | 1.6 | 1.6 | 0.00 | 0.00 | 0.00 | 63 | 1018.7 |
| 20260902152722 | 32 | 86 | 1.6 | 1.6 | 0.00 | 0.00 | 0.00 | 64 | 1018.8 |
| 20260902152223 | 32 | 79 | 1.6 | 3.2 | 0.00 | 0.00 | 0.00 | 64 | 1018.8 |
| 20260902152156 | 32 | 45 | 3.2 | 6.4 | 0.00 | 0.00 | 0.00 | 63 | 1018.8 |
| 20260902151723 | 32 | 0 | 0.0 | 3.2 | 0.00 | 0.00 | 0.00 | 64 | 1018.8 |
| 20260902151222 | 32 | 0 | 1.6 | 3.2 | 0.00 | 0.00 | 0.00 | 63 | 1018.6 |
| 20260902151157 | 32 | 0 | 1.6 | 4.8 | 0.00 | 0.00 | 0.00 | 63 | 1018.6 |
| 20260902150723 | 32 | 311 | 0.0 | 1.6 | 0.00 | 0.00 | 0.00 | 65 | 1018.6 |
| 20260902150224 | 31 | 353 | 0.0 | 3.2 | 0.00 | 0.00 | 0.00 | 65 | 1018.6 |
| 20260902150156 | 31 | 333 | 3.2 | 3.2 | 0.00 | 0.00 | 0.00 | 65 | 1018.6 |
| 20260902145723 | 31 | 357 | 1.6 | 1.6 | 0.00 | 0.00 | 0.00 | 65 | 1018.5 |
| 20260902145223 | 31 | 1 | 1.6 | 1.6 | 0.00 | 0.00 | 0.00 | 66 | 1018.5 |
| 20260902145155 | 31 | 3 | 0.0 | 1.6 | 0.00 | 0.00 | 0.00 | 65 | 1018.5 |
| 20260902144722 | 31 | 0 | 1.6 | 3.2 | 0.00 | 0.00 | 0.00 | 64 | 1018.5 |
| 20260902144222 | 31 | 0 | 3.2 | 3.2 | 0.00 | 0.00 | 0.00 | 66 | 1018.4 |
| 20260902144156 | 31 | 0 | 1.6 | 1.6 | 0.00 | 0.00 | 0.00 | 66 | 1018.4 |
| 20260902143722 | 31 | 4 | 3.2 | 3.2 | 0.00 | 0.00 | 0.00 | 69 | 1018.4 |
| 20260902143223 | 31 | 147 | 0.0 | 0.0 | 0.00 | 0.00 | 0.00 | 71 | 1018.4 |
| 20260902143200 | 31 | 147 | 0.0 | 0.0 | 0.00 | 0.00 | 0.00 | 71 | 1018.4 |
| 20260902142722 | 31 | 147 | 0.0 | 1.6 | 0.00 | 0.00 | 0.00 | 72 | 1018.4 |
| 20260902142222 | 31 | 109 | 0.0 | 1.6 | 0.00 | 0.00 | 0.00 | 74 | 1018.4 |
| 20260902142156 | 30 | 109 | 1.6 | 1.6 | 0.00 | 0.00 | 0.00 | 74 | 1018.4 |
| 20260902141723 | 30 | 109 | 0.0 | 1.6 | 0.00 | 0.00 | 0.00 | 74 | 1018.4 |
| 20260902141223 | 30 | 109 | 0.0 | 0.0 | 0.00 | 0.00 | 0.00 | 74 | 1018.5 |
| 20260902141157 | 30 | 109 | 0.0 | 0.0 | 0.00 | 0.00 | 0.00 | 74 | 1018.5 |
| 20260902140723 | 30 | 109 | 0.0 | 0.0 | 0.00 | 0.00 | 0.00 | 75 | 1018.5 |
| 20260902140222 | 30 | 109 | 0.0 | 1.6 | 0.00 | 0.00 | 0.00 | 75 | 1018.5 |
| 20260902140157 | 30 | 109 | 1.6 | 1.6 | 0.00 | 0.00 | 0.00 | 75 | 1018.5 |
| 20260902135723 | 29 | 109 | 3.2 | 3.2 | 0.00 | 0.00 | 0.00 | 76 | 1018.6 |
| 20260902135223 | 28 | 109 | 0.0 | 1.6 | 0.00 | 0.00 | 0.00 | 77 | 1018.6 |
| 20260902135157 | 28 | 109 | 1.6 | 1.6 | 0.00 | 0.00 | 0.00 | 78 | 1018.6 |
| 20260902134722 | 28 | 104 | 3.2 | 3.2 | 0.00 | 0.00 | 0.00 | 79 | 1018.6 |
| 20260902134223 | 28 | 114 | 0.0 | 0.0 | 0.00 | 0.00 | 0.00 | 80 | 1018.6 |
| 20260902134155 | 27 | 114 | 0.0 | 1.6 | 0.00 | 0.00 | 0.00 | 80 | 1018.6 |
| 20260902133722 | 27 | 114 | 1.6 | 1.6 | 0.00 | 0.00 | 0.00 | 81 | 1018.6 |
| 20260902133222 | 27 | 114 | 0.0 | 0.0 | 0.00 | 0.00 | 0.00 | 82 | 1018.6 |
| 20260902133157 | 27 | 114 | 0.0 | 0.0 | 0.00 | 0.00 | 0.00 | 82 | 1018.6 |
| 20260902132723 | 27 | 114 | 1.6 | 1.6 | 0.00 | 0.00 | 0.00 | 85 | 1018.5 |
| 20260902132223 | 26 | 114 | 0.0 | 0.0 | 0.00 | 0.00 | 0.00 | 86 | 1018.5 |
| 20260902132156 | 26 | 114 | 0.0 | 0.0 | 0.00 | 0.00 | 0.00 | 86 | 1018.5 |
| 20260902131722 | 26 | 114 | 0.0 | 0.0 | 0.00 | 0.00 | 0.00 | 86 | 1018.5 |
| 20260902131223 | 26 | 114 | 0.0 | 0.0 | 0.00 | 0.00 | 0.00 | 86 | 1018.6 |
| 20260902131155 | 26 | 114 | 0.0 | 0.0 | 0.00 | 0.00 | 0.00 | 86 | 1018.6 |
| 20260902130722 | 26 | 114 | 0.0 | 0.0 | 0.00 | 0.00 | 0.00 | 87 | 1018.6 |
| 20260902130223 | 25 | 114 | 0.0 | 0.0 | 0.00 | 0.00 | 0.00 | 88 | 1018.6 |
| 20260902130155 | 25 | 114 | 0.0 | 0.0 | 0.00 | 0.00 | 0.00 | 88 | 1018.6 |
| 20260902125724 | 25 | 114 | 0.0 | 0.0 | 0.00 | 0.00 | 0.00 | 88 | 1018.5 |
| 20260902125222 | 25 | 114 | 0.0 | 0.0 | 0.00 | 0.00 | 0.00 | 89 | 1018.5 |
| 20260902125157 | 25 | 114 | 0.0 | 0.0 | 0.00 | 0.00 | 0.00 | 88 | 1018.5 |
| 20260902124723 | 25 | 114 | 0.0 | 0.0 | 0.00 | 0.00 | 0.00 | 89 | 1018.5 |
| 20260902124222 | 25 | 114 | 0.0 | 0.0 | 0.00 | 0.00 | 0.00 | 89 | 1018.5 |
| 20260902124155 | 25 | 114 | 0.0 | 0.0 | 0.00 | 0.00 | 0.00 | 89 | 1018.5 |
| 20260902123723 | 24 | 114 | 0.0 | 0.0 | 0.00 | 0.00 | 0.00 | 90 | 1018.5 |
| 20260902123224 | 24 | 114 | 0.0 | 0.0 | 0.00 | 0.00 | 0.00 | 90 | 1018.5 |
| 20260902123157 | 24 | 114 | 0.0 | 0.0 | 0.00 | 0.00 | 0.00 | 90 | 1018.5 |